Location: Gniazdowice
(50.2124°N, 20.2673°E)
Time: 18:20:22
(UTC+00:00)

Meteor 1-28 Rocket - Pass Details

Date: 05 August 2024
Orbit: 467 x 483 km, 97.5° (Epoch: 11 September)

Event Time Altitude Azimuth Distance (km) Brightness Sun altitude
Exits shadow 01:45:53 17° 198° (SSW) 1,327 4.7 -12.0°
Maximum altitude 01:48:22 39° 262° (W) 755 3.6 -11.7°
Drops below altitude 10° 01:51:48 10° 332° (NNW) 1,692 6.0 -11.4°
Sets 01:53:59 0° 341° (NNW) 2,576 7.1 -11.1°
